TimeCST,TemperatureF,Dew PointF,Humidity,Sea Level PressureIn,VisibilityMPH,Wind Direction,Wind SpeedMPH,Gust SpeedMPH,PrecipitationIn,Events,Conditions,WindDirDegrees,DateUTC
12:12 AM,19.4,15.8,86,29.99,2.5,SW,15.0,-,N/A,,Overcast,230,2013-01-02 06:12:00
12:33 AM,17.6,14.0,86,29.98,4.0,WSW,10.4,-,N/A,,Overcast,240,2013-01-02 06:33:00
12:53 AM,17.6,14.0,86,29.97,1.2,SW,12.7,-,N/A,,Overcast,230,2013-01-02 06:53:00
1:12 AM,17.6,14.0,86,29.97,1.0,SW,10.4,-,N/A,,Overcast,220,2013-01-02 07:12:00
1:33 AM,17.6,14.0,86,29.97,0.8,SSW,12.7,-,N/A,,Overcast,210,2013-01-02 07:33:00
1:53 AM,17.6,14.0,86,29.96,0.8,SW,9.2,-,N/A,,Overcast,220,2013-01-02 07:53:00
2:13 AM,17.6,14.0,86,29.96,0.8,SSW,9.2,-,N/A,,Overcast,210,2013-01-02 08:13:00
2:33 AM,17.6,14.0,86,29.96,0.8,SW,6.9,-,N/A,,Overcast,220,2013-01-02 08:33:00
2:53 AM,17.6,14.0,86,29.96,0.8,SSW,8.1,-,N/A,,Overcast,210,2013-01-02 08:53:00
3:33 AM,17.6,14.0,86,29.94,0.8,SSW,9.2,-,N/A,,Overcast,210,2013-01-02 09:33:00
3:53 AM,17.6,12.2,79,29.94,0.8,SW,5.8,-,N/A,,Overcast,220,2013-01-02 09:53:00
4:13 AM,15.8,12.2,86,29.94,3.0,SW,6.9,-,N/A,,Scattered Clouds,220,2013-01-02 10:13:00
4:33 AM,14.0,10.4,86,29.93,5.0,SW,8.1,-,N/A,,Clear,230,2013-01-02 10:33:00
4:52 AM,14.0,10.4,86,29.92,5.0,SW,8.1,-,N/A,,Clear,220,2013-01-02 10:52:00
5:13 AM,12.2,8.6,85,29.92,5.0,SW,9.2,-,N/A,,Clear,220,2013-01-02 11:13:00
5:33 AM,12.2,8.6,85,29.92,5.0,SW,8.1,-,N/A,,Clear,230,2013-01-02 11:33:00
6:13 AM,12.2,8.6,85,29.91,5.0,WSW,6.9,-,N/A,,Clear,240,2013-01-02 12:13:00
6:33 AM,12.2,8.6,85,29.91,5.0,SW,4.6,-,N/A,,Clear,220,2013-01-02 12:33:00
6:53 AM,12.2,8.6,85,29.91,7.0,SW,4.6,-,N/A,,Clear,230,2013-01-02 12:53:00
7:13 AM,10.4,6.8,85,29.93,7.0,SW,5.8,-,N/A,,Clear,220,2013-01-02 13:13:00
7:32 AM,10.4,6.8,85,29.93,7.0,SW,5.8,-,N/A,,Clear,230,2013-01-02 13:32:00
7:53 AM,10.4,6.8,85,29.92,5.0,SW,5.8,-,N/A,,Clear,230,2013-01-02 13:53:00
8:13 AM,10.4,6.8,85,29.92,5.0,WSW,8.1,-,N/A,,Clear,240,2013-01-02 14:13:00
8:32 AM,10.4,8.6,92,29.92,5.0,WSW,4.6,-,N/A,,Scattered Clouds,240,2013-01-02 14:32:00
8:53 AM,12.2,8.6,85,29.92,5.0,SW,4.6,-,N/A,,Overcast,230,2013-01-02 14:53:00
9:13 AM,14.0,10.4,86,29.92,5.0,SW,3.5,-,N/A,,Overcast,230,2013-01-02 15:13:00
9:33 AM,15.8,12.2,86,29.94,5.0,WSW,4.6,-,N/A,,Overcast,240,2013-01-02 15:33:00
9:53 AM,17.6,12.2,79,29.94,5.0,WSW,3.5,-,N/A,,Overcast,240,2013-01-02 15:53:00
10:12 AM,17.6,14.0,86,29.94,4.0,WSW,4.6,-,N/A,,Overcast,250,2013-01-02 16:12:00
10:33 AM,19.4,17.6,93,29.94,3.0,West,4.6,-,N/A,Snow,Light Snow,260,2013-01-02 16:33:00
10:53 AM,23.0,19.4,86,29.94,4.0,West,6.9,-,N/A,Snow,Light Snow,270,2013-01-02 16:53:00
11:12 AM,23.0,21.2,93,29.94,3.0,West,6.9,-,N/A,Snow,Light Snow,270,2013-01-02 17:12:00
11:33 AM,24.8,21.2,86,29.94,5.0,West,6.9,-,N/A,Snow,Light Snow,270,2013-01-02 17:33:00
11:53 AM,26.6,23.0,86,29.93,5.0,West,8.1,-,N/A,,Overcast,280,2013-01-02 17:53:00
12:13 PM,26.6,23.0,86,29.93,5.0,West,6.9,-,N/A,,Overcast,280,2013-01-02 18:13:00
12:33 PM,26.6,23.0,86,29.92,5.0,WNW,5.8,-,N/A,,Overcast,290,2013-01-02 18:33:00
12:53 PM,26.6,24.8,93,29.92,7.0,West,9.2,-,N/A,,Overcast,270,2013-01-02 18:53:00
1:13 PM,28.4,24.8,86,29.93,7.0,West,9.2,-,N/A,,Overcast,280,2013-01-02 19:13:00
1:33 PM,28.4,26.6,93,29.93,7.0,West,10.4,-,N/A,,Overcast,280,2013-01-02 19:33:00
1:52 PM,28.4,26.6,93,29.93,5.0,WNW,11.5,-,N/A,,Overcast,290,2013-01-02 19:52:00
2:13 PM,30.2,26.6,86,29.94,10.0,West,9.2,-,N/A,,Overcast,280,2013-01-02 20:13:00
2:33 PM,30.2,26.6,86,29.95,10.0,West,9.2,-,N/A,,Overcast,280,2013-01-02 20:33:00
2:52 PM,30.2,26.6,86,29.95,10.0,WNW,10.4,-,N/A,,Overcast,290,2013-01-02 20:52:00
3:13 PM,30.2,26.6,86,29.95,10.0,West,10.4,-,N/A,,Overcast,280,2013-01-02 21:13:00
3:33 PM,30.2,26.6,86,29.96,10.0,WNW,10.4,-,N/A,,Overcast,290,2013-01-02 21:33:00
3:52 PM,30.2,26.6,86,29.96,10.0,West,11.5,-,N/A,,Overcast,280,2013-01-02 21:52:00
4:13 PM,30.2,26.6,86,29.97,10.0,West,9.2,-,N/A,,Overcast,280,2013-01-02 22:13:00
4:33 PM,32.0,26.6,80,29.98,10.0,West,9.2,-,N/A,,Overcast,280,2013-01-02 22:33:00
4:52 PM,32.0,26.6,80,29.99,10.0,WNW,21.9,25.3,N/A,,Overcast,300,2013-01-02 22:52:00
5:13 PM,28.4,23.0,80,30.00,5.0,NW,21.9,26.5,N/A,,Haze,320,2013-01-02 23:13:00
5:33 PM,28.4,23.0,80,30.01,10.0,NW,15.0,21.9,N/A,,Mostly Cloudy,310,2013-01-02 23:33:00
5:52 PM,28.4,21.2,74,30.02,10.0,WNW,15.0,-,N/A,,Scattered Clouds,300,2013-01-02 23:52:00
6:13 PM,26.6,19.4,74,30.02,10.0,NW,16.1,-,N/A,,Clear,310,2013-01-03 00:13:00
6:32 PM,26.6,19.4,74,30.03,10.0,NW,16.1,23.0,N/A,,Mostly Cloudy,320,2013-01-03 00:32:00
6:53 PM,26.6,19.4,74,30.04,10.0,NW,15.0,19.6,N/A,,Overcast,310,2013-01-03 00:53:00
7:13 PM,26.6,19.4,74,30.05,10.0,NW,12.7,19.6,N/A,,Overcast,320,2013-01-03 01:13:00
7:33 PM,26.6,19.4,74,30.05,10.0,NW,10.4,-,N/A,,Overcast,310,2013-01-03 01:33:00
7:53 PM,26.6,19.4,74,30.06,10.0,NW,10.4,-,N/A,,Overcast,310,2013-01-03 01:53:00
8:13 PM,26.6,21.2,80,30.06,10.0,NW,9.2,-,N/A,,Overcast,310,2013-01-03 02:13:00
8:33 PM,26.6,21.2,80,30.06,10.0,NW,8.1,-,N/A,,Overcast,310,2013-01-03 02:33:00
8:53 PM,26.6,21.2,80,30.07,10.0,WNW,9.2,-,N/A,,Overcast,290,2013-01-03 02:53:00
9:12 PM,26.6,21.2,80,30.07,10.0,WNW,10.4,-,N/A,Snow,Light Snow,290,2013-01-03 03:12:00
9:33 PM,26.6,21.2,80,30.08,10.0,WNW,11.5,-,N/A,Snow,Light Snow,300,2013-01-03 03:33:00
9:52 PM,26.6,21.2,80,30.08,10.0,NW,10.4,-,N/A,,Overcast,310,2013-01-03 03:52:00
10:13 PM,26.6,21.2,80,30.09,10.0,NW,15.0,-,N/A,Snow,Light Snow,310,2013-01-03 04:13:00
10:33 PM,26.6,21.2,80,30.10,10.0,NW,10.4,-,N/A,Snow,Light Snow,310,2013-01-03 04:33:00
10:53 PM,26.6,21.2,80,30.10,5.0,NW,17.3,-,N/A,Snow,Light Snow,310,2013-01-03 04:53:00
11:13 PM,24.8,21.2,86,30.11,4.0,NW,21.9,26.5,N/A,Snow,Light Snow,320,2013-01-03 05:13:00
11:33 PM,23.0,19.4,86,30.12,7.0,NW,17.3,23.0,N/A,Snow,Light Snow,320,2013-01-03 05:33:00
11:53 PM,21.2,15.8,80,30.12,7.0,NNW,11.5,24.2,N/A,,Overcast,340,2013-01-03 05:53:00